datetime,storage
1968-10-01,56328.0
1968-10-02,56276.0
1968-10-03,56225.0
1968-10-04,56122.0
1968-10-05,56071.0
1968-10-06,56019.0
1968-10-07,55916.0
1968-10-08,55814.0
1968-10-09,55712.0
1968-10-10,55610.0
1968-10-11,55507.0
1968-10-12,55405.0
1968-10-13,55304.0
1968-10-14,55507.0
1968-10-15,55559.0
1968-10-16,55610.0
1968-10-17,55610.0
1968-10-18,55610.0
1968-10-19,55507.0
1968-10-20,55507.0
1968-10-21,55456.0
1968-10-22,55405.0
1968-10-23,55354.0
1968-10-24,55304.0
1968-10-25,55202.0
1968-10-26,55100.0
1968-10-27,54998.0
1968-10-28,54897.0
1968-10-29,54846.0
1968-10-30,54796.0
1968-10-31,54796.0
1968-11-01,54694.0
1968-11-02,54694.0
1968-11-03,54593.0
1968-11-04,54593.0
1968-11-05,54543.0
1968-11-06,54492.0
1968-11-07,54492.0
1968-11-08,54391.0
1968-11-09,54442.0
1968-11-10,54391.0
1968-11-11,54391.0
1968-11-12,54341.0
1968-11-13,54341.0
1968-11-14,54240.0
1968-11-15,54290.0
1968-11-16,54290.0
1968-11-17,54290.0
1968-11-18,54190.0
1968-11-19,54190.0
1968-11-20,54089.0
1968-11-21,54039.0
1968-11-22,54039.0
1968-11-23,53988.0
1968-11-24,53988.0
1968-11-25,53938.0
1968-11-26,53888.0
1968-11-27,53838.0
1968-11-28,53788.0
1968-11-29,53788.0
1968-11-30,53688.0
1968-12-01,53588.0
1968-12-02,53487.0
1968-12-03,53487.0
1968-12-04,53388.0
1968-12-05,53338.0
1968-12-06,53238.0
1968-12-07,53138.0
1968-12-08,53039.0
1968-12-09,52989.0
1968-12-10,52940.0
1968-12-11,52940.0
1968-12-12,52840.0
1968-12-13,52791.0
1968-12-14,52692.0
1968-12-15,52543.0
1968-12-16,52494.0
1968-12-17,52395.0
1968-12-18,52395.0
1968-12-19,52316.0
1968-12-20,52198.0
1968-12-21,52050.0
1968-12-22,51902.0
1968-12-23,51804.0
1968-12-24,51706.0
1968-12-25,51657.0
1968-12-26,51608.0
1968-12-27,51559.0
1968-12-28,51510.0
1968-12-29,51412.0
1968-12-30,51412.0
1968-12-31,51315.0
1969-01-01,51217.0
1969-01-02,51119.0
1969-01-03,51022.0
1969-01-04,50924.0
1969-01-05,50924.0
1969-01-06,50828.0
1969-01-07,50779.0
1969-01-08,50633.0
1969-01-09,50536.0
1969-01-10,50440.0
1969-01-11,50343.0
1969-01-12,50247.0
1969-01-13,50247.0
1969-01-14,50247.0
1969-01-15,50247.0
1969-01-16,50247.0
1969-01-17,50150.0
1969-01-18,50150.0
1969-01-19,50150.0
1969-01-20,50247.0
1969-01-21,50440.0
1969-01-22,50633.0
1969-01-23,50828.0
1969-01-24,50924.0
1969-01-25,51022.0
1969-01-26,51217.0
1969-01-27,51412.0
1969-01-28,51510.0
1969-01-29,51510.0
1969-01-30,51412.0
1969-01-31,51412.0
1969-02-01,51315.0
1969-02-02,51217.0
1969-02-03,51022.0
1969-02-04,51022.0
1969-02-05,51022.0
1969-02-06,50973.0
1969-02-07,50876.0
1969-02-08,50828.0
1969-02-09,50730.0
1969-02-10,50730.0
1969-02-11,50633.0
1969-02-12,50440.0
1969-02-13,50488.0
1969-02-14,50440.0
1969-02-15,50440.0
1969-02-16,50343.0
1969-02-17,50247.0
1969-02-18,50198.0
1969-02-19,50150.0
1969-02-20,50054.0
1969-02-21,49957.0
1969-02-22,49861.0
1969-02-23,49765.0
1969-02-24,49765.0
1969-02-25,49669.0
1969-02-26,49382.0
1969-02-27,48810.0
1969-02-28,48431.0
1969-03-01,48053.0
1969-03-02,47584.0
1969-03-03,47117.0
1969-03-04,46699.0
1969-03-05,46283.0
1969-03-06,45915.0
1969-03-07,45366.0
1969-03-08,44460.0
1969-03-09,43564.0
1969-03-10,42591.0
1969-03-11,41717.0
1969-03-12,40855.0
1969-03-13,39919.0
1969-03-14,38995.0
1969-03-15,38083.0
1969-03-16,37264.0
1969-03-17,36455.0
1969-03-18,35575.0
1969-03-19,34629.0
1969-03-20,33772.0
1969-03-21,33003.0
1969-03-22,32091.0
1969-03-23,31341.0
1969-03-24,30526.0
1969-03-25,29648.0
1969-03-26,28927.0
1969-03-27,28143.0
1969-03-28,27860.0
1969-03-29,26885.0
1969-03-30,26541.0
1969-03-31,26473.0
1969-04-01,26678.0
1969-04-02,27231.0
1969-04-03,27440.0
1969-04-04,28498.0
1969-04-05,29359.0
1969-04-06,30012.0
1969-04-07,30452.0
1969-04-08,30821.0
1969-04-09,31118.0
1969-04-10,31715.0
1969-04-11,32318.0
1969-04-12,33003.0
1969-04-13,33695.0
1969-04-14,34394.0
1969-04-15,35385.0
1969-04-16,35814.0
1969-04-17,36294.0
1969-04-18,36858.0
1969-04-19,37427.0
1969-04-20,37509.0
1969-04-21,37755.0
1969-04-22,37837.0
1969-04-23,37918.0
1969-04-24,37755.0
1969-04-25,37755.0
1969-04-26,37755.0
1969-04-27,36939.0
1969-04-28,37101.0
1969-04-29,36656.0
1969-04-30,37021.0
1969-05-01,37346.0
1969-05-02,37918.0
1969-05-03,37837.0
1969-05-04,37673.0
1969-05-05,37509.0
1969-05-06,37591.0
1969-05-07,37591.0
1969-05-08,37673.0
1969-05-09,37755.0
1969-05-10,37837.0
1969-05-11,37918.0
1969-05-12,38001.0
1969-05-13,37837.0
1969-05-14,37673.0
1969-05-15,37673.0
1969-05-16,37509.0
1969-05-17,37264.0
1969-05-18,37264.0
1969-05-19,38248.0
1969-05-20,39330.0
1969-05-21,40173.0
1969-05-22,41199.0
1969-05-23,41978.0
1969-05-24,42767.0
1969-05-25,43564.0
1969-05-26,44640.0
1969-05-27,45915.0
1969-05-28,47024.0
1969-05-29,48053.0
1969-05-30,49095.0
1969-05-31,49861.0
1969-06-01,50247.0
1969-06-02,51412.0
1969-06-03,52593.0
1969-06-04,53588.0
1969-06-05,54593.0
1969-06-06,55405.0
1969-06-07,56122.0
1969-06-08,56740.0
1969-06-09,57155.0
1969-06-10,57467.0
1969-06-11,57467.0
1969-06-12,57467.0
1969-06-13,57363.0
1969-06-14,57363.0
1969-06-15,57363.0
1969-06-16,57676.0
1969-06-17,57989.0
1969-06-18,59148.0
1969-06-19,59892.0
1969-06-20,60534.0
1969-06-21,61179.0
1969-06-22,61503.0
1969-06-23,61720.0
1969-06-24,62263.0
1969-06-25,62481.0
1969-06-26,62372.0
1969-06-27,62154.0
1969-06-28,62154.0
1969-06-29,62154.0
1969-06-30,62046.0
1969-07-01,62046.0
1969-07-02,61937.0
1969-07-03,61828.0
1969-07-04,61828.0
1969-07-05,61720.0
1969-07-06,61612.0
1969-07-07,61503.0
1969-07-08,61179.0
1969-07-09,60641.0
1969-07-10,60105.0
1969-07-11,59254.0
1969-07-12,58409.0
1969-07-13,57467.0
1969-07-14,56637.0
1969-07-15,55712.0
1969-07-16,54694.0
1969-07-17,53089.0
1969-07-18,51559.0
1969-07-19,50102.0
1969-07-20,48431.0
1969-07-21,46931.0
1969-07-22,46007.0
1969-07-23,45961.0
1969-07-24,45915.0
1969-07-25,45823.0
1969-07-26,45796.0
1969-07-27,45640.0
1969-07-28,45549.0
1969-07-29,45549.0
1969-07-30,45640.0
1969-07-31,45640.0
1969-08-01,45549.0
1969-08-02,45549.0
1969-08-03,45457.0
1969-08-04,45366.0
1969-08-05,45275.0
1969-08-06,45184.0
1969-08-07,45093.0
1969-08-08,45002.0
1969-08-09,44911.0
1969-08-10,44731.0
1969-08-11,44460.0
1969-08-12,44369.0
1969-08-13,44190.0
1969-08-14,43921.0
1969-08-15,43876.0
1969-08-16,43653.0
1969-08-17,43608.0
1969-08-18,43519.0
1969-08-19,43386.0
1969-08-20,43253.0
1969-08-21,43208.0
1969-08-22,43031.0
1969-08-23,42855.0
1969-08-24,42811.0
1969-08-25,42679.0
1969-08-26,42591.0
1969-08-27,42503.0
1969-08-28,42415.0
1969-08-29,42240.0
1969-08-30,42066.0
1969-08-31,41891.0
1969-09-01,41761.0
1969-09-02,41631.0
1969-09-03,41544.0
1969-09-04,41415.0
1969-09-05,41285.0
1969-09-06,41113.0
1969-09-07,40941.0
1969-09-08,40770.0
1969-09-09,40641.0
1969-09-10,40513.0
1969-09-11,40343.0
1969-09-12,40173.0
1969-09-13,40003.0
1969-09-14,39834.0
1969-09-15,39666.0
1969-09-16,39498.0
1969-09-17,39330.0
1969-09-18,39162.0
1969-09-19,38995.0
1969-09-20,38828.0
1969-09-21,38662.0
1969-09-22,38496.0
1969-09-23,38413.0
1969-09-24,38248.0
1969-09-25,38083.0
1969-09-26,37918.0
1969-09-27,37755.0
1969-09-28,37591.0
1969-09-29,37427.0
1969-09-30,37183.0
1969-10-01,36939.0
1969-10-02,36777.0
1969-10-03,36616.0
1969-10-04,36455.0
1969-10-05,36374.0
1969-10-06,36214.0
1969-10-07,36054.0
1969-10-08,35894.0
1969-10-09,35735.0
1969-10-10,35575.0
1969-10-11,35417.0
1969-10-12,35259.0
1969-10-13,35101.0
1969-10-14,35022.0
1969-10-15,34864.0
1969-10-16,34786.0
1969-10-17,35101.0
1969-10-18,35180.0
1969-10-19,35101.0
1969-10-20,35101.0
1969-10-21,35022.0
1969-10-22,34943.0
1969-10-23,34864.0
1969-10-24,34786.0
1969-10-25,34629.0
1969-10-26,34472.0
1969-10-27,34316.0
1969-10-28,34316.0
1969-10-29,34238.0
1969-10-30,34160.0
1969-10-31,34083.0
1969-11-01,34005.0
1969-11-02,33850.0
1969-11-03,33772.0
1969-11-04,33695.0
1969-11-05,33618.0
1969-11-06,33540.0
1969-11-07,33464.0
1969-11-08,33387.0
1969-11-09,33233.0
1969-11-10,33156.0
1969-11-11,33080.0
1969-11-12,32926.0
1969-11-13,32812.0
1969-11-14,32698.0
1969-11-15,32545.0
1969-11-16,32469.0
1969-11-17,32356.0
1969-11-18,32242.0
1969-11-19,32091.0
1969-11-20,31941.0
1969-11-21,31865.0
1969-11-22,31715.0
1969-11-23,31640.0
1969-11-24,31490.0
1969-11-25,31341.0
1969-11-26,31192.0
1969-11-27,30969.0
1969-11-28,30895.0
1969-11-29,30747.0
1969-11-30,30599.0
1969-12-01,30452.0
1969-12-02,30305.0
1969-12-03,30158.0
1969-12-04,30012.0
1969-12-05,29866.0
1969-12-06,29721.0
1969-12-07,29503.0
1969-12-08,29359.0
1969-12-09,29214.0
1969-12-10,29070.0
1969-12-11,28927.0
1969-12-12,28783.0
1969-12-13,28747.0
1969-12-14,28569.0
1969-12-15,28426.0
1969-12-16,28284.0
1969-12-17,28143.0
1969-12-18,28001.0
1969-12-19,27931.0
1969-12-20,27860.0
1969-12-21,27860.0
1969-12-22,27719.0
1969-12-23,27649.0
1969-12-24,27510.0
1969-12-25,27440.0
1969-12-26,27300.0
1969-12-27,27161.0
1969-12-28,26954.0
1969-12-29,26747.0
1969-12-30,26541.0
1969-12-31,26404.0
1970-01-01,26268.0
1970-01-02,26064.0
1970-01-03,25794.0
1970-01-04,25660.0
1970-01-05,25392.0
1970-01-06,25193.0
1970-01-07,24994.0
1970-01-08,24862.0
1970-01-09,24730.0
1970-01-10,24599.0
1970-01-11,24468.0
1970-01-12,24338.0
1970-01-13,24208.0
1970-01-14,24078.0
1970-01-15,23949.0
1970-01-16,23820.0
1970-01-17,23756.0
1970-01-18,23627.0
1970-01-19,23499.0
1970-01-20,23372.0
1970-01-21,23308.0
1970-01-22,23245.0
1970-01-23,23245.0
1970-01-24,23181.0
1970-01-25,23055.0
1970-01-26,22992.0
1970-01-27,22866.0
1970-01-28,22740.0
1970-01-29,22553.0
1970-01-30,22428.0
1970-01-31,22242.0
1970-02-01,22119.0
1970-02-02,21996.0
1970-02-03,21903.0
1970-02-04,21781.0
1970-02-05,21628.0
1970-02-06,21507.0
1970-02-07,21386.0
1970-02-08,21204.0
1970-02-09,21084.0
1970-02-10,20964.0
1970-02-11,20844.0
1970-02-12,20784.0
1970-02-13,20725.0
1970-02-14,20605.0
1970-02-15,20487.0
1970-02-16,20368.0
1970-02-17,20250.0
1970-02-18,20103.0
1970-02-19,19956.0
1970-02-20,19781.0
1970-02-21,19723.0
1970-02-22,19607.0
1970-02-23,19491.0
1970-02-24,19375.0
1970-02-25,19260.0
1970-02-26,19145.0
1970-02-27,19031.0
1970-02-28,18974.0
1970-03-01,18917.0
1970-03-02,18888.0
1970-03-03,18803.0
1970-03-04,18689.0
1970-03-05,18633.0
1970-03-06,18576.0
1970-03-07,18519.0
1970-03-08,18491.0
1970-03-09,18435.0
1970-03-10,18350.0
1970-03-11,18238.0
1970-03-12,18182.0
1970-03-13,18294.0
1970-03-14,18519.0
1970-03-15,18746.0
1970-03-16,18974.0
1970-03-17,19145.0
1970-03-18,19260.0
1970-03-19,19433.0
1970-03-20,19607.0
1970-03-21,19781.0
1970-03-22,19956.0
1970-03-23,20191.0
1970-03-24,20487.0
1970-03-25,20725.0
1970-03-26,20874.0
1970-03-27,21024.0
1970-03-28,21144.0
1970-03-29,21265.0
1970-03-30,21416.0
1970-03-31,21568.0
1970-04-01,21689.0
1970-04-02,21873.0
1970-04-03,21996.0
1970-04-04,22119.0
1970-04-05,22242.0
1970-04-06,22428.0
1970-04-07,22678.0
1970-04-08,22866.0
1970-04-09,23087.0
1970-04-10,23308.0
1970-04-11,23563.0
1970-04-12,23756.0
1970-04-13,23949.0
1970-04-14,24208.0
1970-04-15,24403.0
1970-04-16,24599.0
1970-04-17,24796.0
1970-04-18,24994.0
1970-04-19,25193.0
1970-04-20,25459.0
1970-04-21,25660.0
1970-04-22,25862.0
1970-04-23,26064.0
1970-04-24,26268.0
1970-04-25,26473.0
1970-04-26,26678.0
1970-04-27,26919.0
1970-04-28,27161.0
1970-04-29,27440.0
1970-04-30,27719.0
1970-05-01,28072.0
1970-05-02,28355.0
1970-05-03,28640.0
1970-05-04,29070.0
1970-05-05,29576.0
1970-05-06,30232.0
1970-05-07,30673.0
1970-05-08,30895.0
1970-05-09,31192.0
1970-05-10,31416.0
1970-05-11,31603.0
1970-05-12,31753.0
1970-05-13,31941.0
1970-05-14,32091.0
1970-05-15,32318.0
1970-05-16,32545.0
1970-05-17,32850.0
1970-05-18,33387.0
1970-05-19,33772.0
1970-05-20,34083.0
1970-05-21,34238.0
1970-05-22,34433.0
1970-05-23,34707.0
1970-05-24,35022.0
1970-05-25,35417.0
1970-05-26,35814.0
1970-05-27,36535.0
1970-05-28,37509.0
1970-05-29,38083.0
1970-05-30,38745.0
1970-05-31,39414.0
1970-06-01,40428.0
1970-06-02,42153.0
1970-06-03,44190.0
1970-06-04,46375.0
1970-06-05,48053.0
1970-06-06,49573.0
1970-06-07,51315.0
1970-06-08,53188.0
1970-06-09,53588.0
1970-06-10,57676.0
1970-06-11,59360.0
1970-06-12,60856.0
1970-06-13,61720.0
1970-06-14,62154.0
1970-06-15,62481.0
1970-06-16,62591.0
1970-06-17,62645.0
1970-06-18,62809.0
1970-06-19,62864.0
1970-06-20,62918.0
1970-06-21,63028.0
1970-06-22,63083.0
1970-06-23,63028.0
1970-06-24,62918.0
1970-06-25,62700.0
1970-06-26,62591.0
1970-06-27,62372.0
1970-06-28,62263.0
1970-06-29,62263.0
1970-06-30,62700.0
1970-07-01,62700.0
1970-07-02,62481.0
1970-07-03,61828.0
1970-07-04,61395.0
1970-07-05,61179.0
1970-07-06,60964.0
1970-07-07,60802.0
1970-07-08,60426.0
1970-07-09,60319.0
1970-07-10,60212.0
1970-07-11,59999.0
1970-07-12,59785.0
1970-07-13,59572.0
1970-07-14,59254.0
1970-07-15,59042.0
1970-07-16,58725.0
1970-07-17,58409.0
1970-07-18,58094.0
1970-07-19,57780.0
1970-07-20,57467.0
1970-07-21,57051.0
1970-07-22,56740.0
1970-07-23,56482.0
1970-07-24,56173.0
1970-07-25,55865.0
1970-07-26,55507.0
1970-07-27,55304.0
1970-07-28,54897.0
1970-07-29,54593.0
1970-07-30,54190.0
1970-07-31,54089.0
1970-08-01,53588.0
1970-08-02,53188.0
1970-08-03,52890.0
1970-08-04,52395.0
1970-08-05,52000.0
1970-08-06,51608.0
1970-08-07,51315.0
1970-08-08,50924.0
1970-08-09,50536.0
1970-08-10,50054.0
1970-08-11,49669.0
1970-08-12,49286.0
1970-08-13,48810.0
1970-08-14,48336.0
1970-08-15,47959.0
1970-08-16,47584.0
1970-08-17,47210.0
1970-08-18,46838.0
1970-08-19,46513.0
1970-08-20,46190.0
1970-08-21,45915.0
1970-08-22,45686.0
1970-08-23,45457.0
1970-08-24,45184.0
1970-08-25,44911.0
1970-08-26,44640.0
1970-08-27,44369.0
1970-08-28,44190.0
1970-08-29,44010.0
1970-08-30,43832.0
1970-08-31,43564.0
1970-09-01,43253.0
1970-09-02,43076.0
1970-09-03,43031.0
1970-09-04,42926.0
1970-09-05,42855.0
1970-09-06,43031.0
1970-09-07,43031.0
1970-09-08,42943.0
1970-09-09,42926.0
1970-09-10,42855.0
1970-09-11,42767.0
1970-09-12,42679.0
1970-09-13,42591.0
1970-09-14,42503.0
1970-09-15,42328.0
1970-09-16,42240.0
1970-09-17,42109.0
1970-09-18,41978.0
1970-09-19,41804.0
1970-09-20,41717.0
1970-09-21,41544.0
1970-09-22,41371.0
1970-09-23,41199.0
1970-09-24,41027.0
1970-09-25,40855.0
1970-09-26,40684.0
1970-09-27,40513.0
1970-09-28,40343.0
1970-09-29,40173.0
1970-09-30,40003.0
1970-10-01,39792.0
1970-10-02,39581.0
1970-10-03,39330.0
1970-10-04,39162.0
1970-10-05,38995.0
1970-10-06,38828.0
1970-10-07,38662.0
1970-10-08,38496.0
1970-10-09,38372.0
1970-10-10,38331.0
1970-10-11,38166.0
1970-10-12,38001.0
1970-10-13,37878.0
1970-10-14,37795.0
1970-10-15,37591.0
1970-10-16,37427.0
1970-10-17,37183.0
1970-10-18,37101.0
1970-10-19,36939.0
1970-10-20,36777.0
1970-10-21,36616.0
1970-10-22,36535.0
1970-10-23,36455.0
1970-10-24,36455.0
1970-10-25,36374.0
1970-10-26,36294.0
1970-10-27,36214.0
1970-10-28,36094.0
1970-10-29,35990.0
1970-10-30,35854.0
1970-10-31,35774.0
1970-11-01,35655.0
1970-11-02,35575.0
1970-11-03,35417.0
1970-11-04,35259.0
1970-11-05,35180.0
1970-11-06,35061.0
1970-11-07,35022.0
1970-11-08,34943.0
1970-11-09,34786.0
1970-11-10,34747.0
1970-11-11,34629.0
1970-11-12,34511.0
1970-11-13,34355.0
1970-11-14,34199.0
1970-11-15,33966.0
1970-11-16,33811.0
1970-11-17,33579.0
1970-11-18,33464.0
1970-11-19,33156.0
1970-11-20,33003.0
1970-11-21,32850.0
1970-11-22,32659.0
1970-11-23,32469.0
1970-11-24,32318.0
1970-11-25,32242.0
1970-11-26,32167.0
1970-11-27,32053.0
1970-11-28,31903.0
1970-11-29,31865.0
1970-11-30,31715.0
1970-12-01,31603.0
1970-12-02,31416.0
1970-12-03,31266.0
1970-12-04,31192.0
1970-12-05,31043.0
1970-12-06,30821.0
1970-12-07,30563.0
1970-12-08,30379.0
1970-12-09,30232.0
1970-12-10,30012.0
1970-12-11,29866.0
1970-12-12,29576.0
1970-12-13,29431.0
1970-12-14,29359.0
1970-12-15,29286.0
1970-12-16,29142.0
1970-12-17,29070.0
1970-12-18,28927.0
1970-12-19,28712.0
1970-12-20,28569.0
1970-12-21,28462.0
1970-12-22,28284.0
1970-12-23,28072.0
1970-12-24,27860.0
1970-12-25,27685.0
1970-12-26,27440.0
1970-12-27,27300.0
1970-12-28,27092.0
1970-12-29,26885.0
1970-12-30,26678.0
1970-12-31,26438.0
1971-01-01,26268.0
1971-01-02,25997.0
1971-01-03,25727.0
1971-01-04,25459.0
1971-01-05,25193.0
1971-01-06,24994.0
1971-01-07,24796.0
1971-01-08,24632.0
1971-01-09,24403.0
1971-01-10,24272.0
1971-01-11,24078.0
1971-01-12,23852.0
1971-01-13,23627.0
1971-01-14,23436.0
1971-01-15,23436.0
1971-01-16,23340.0
1971-01-17,23340.0
1971-01-18,23372.0
1971-01-19,23499.0
1971-01-20,23563.0
1971-01-21,23627.0
1971-01-22,23627.0
1971-01-23,23627.0
1971-01-24,23659.0
1971-01-25,23659.0
1971-01-26,23627.0
1971-01-27,23627.0
1971-01-28,23563.0
1971-01-29,23563.0
1971-01-30,23563.0
1971-01-31,23563.0
1971-02-01,23563.0
1971-02-02,23563.0
1971-02-03,23340.0
1971-02-04,23277.0
1971-02-05,23277.0
1971-02-06,23118.0
1971-02-07,22992.0
1971-02-08,22866.0
1971-02-09,22803.0
1971-02-10,22740.0
1971-02-11,22678.0
1971-02-12,22615.0
1971-02-13,22553.0
1971-02-14,22522.0
1971-02-15,22491.0
1971-02-16,22428.0
1971-02-17,22366.0
1971-02-18,22304.0
1971-02-19,22242.0
1971-02-20,22119.0
1971-02-21,21996.0
1971-02-22,21934.0
1971-02-23,21811.0
1971-02-24,21750.0
1971-02-25,21628.0
1971-02-26,21476.0
1971-02-27,21355.0
1971-02-28,21265.0
1971-03-01,21144.0
1971-03-02,20964.0
1971-03-03,20964.0
1971-03-04,20904.0
1971-03-05,20784.0
1971-03-06,20665.0
1971-03-07,20576.0
1971-03-08,20487.0
1971-03-09,20398.0
1971-03-10,20309.0
1971-03-11,20221.0
1971-03-12,20191.0
1971-03-13,20103.0
1971-03-14,20045.0
1971-03-15,19956.0
1971-03-16,19898.0
1971-03-17,19781.0
1971-03-18,19607.0
1971-03-19,19549.0
1971-03-20,19491.0
1971-03-21,19433.0
1971-03-22,19433.0
1971-03-23,19491.0
1971-03-24,19607.0
1971-03-25,19898.0
1971-03-26,20964.0
1971-03-27,21873.0
1971-03-28,22304.0
1971-03-29,22678.0
1971-03-30,22992.0
1971-03-31,23118.0
1971-04-01,23308.0
1971-04-02,23372.0
1971-04-03,23499.0
1971-04-04,23499.0
1971-04-05,23659.0
1971-04-06,23852.0
1971-04-07,24078.0
1971-04-08,24305.0
1971-04-09,24403.0
1971-04-10,24994.0
1971-04-11,25392.0
1971-04-12,25929.0
1971-04-13,26404.0
1971-04-14,27023.0
1971-04-15,27092.0
1971-04-16,27092.0
1971-04-17,27092.0
1971-04-18,27023.0
1971-04-19,27023.0
1971-04-20,26954.0
1971-04-21,26954.0
1971-04-22,26919.0
1971-04-23,26885.0
1971-04-24,26850.0
1971-04-25,26747.0
1971-04-26,26678.0
1971-04-27,26609.0
1971-04-28,26541.0
1971-04-29,26404.0
1971-04-30,26302.0
1971-05-01,26200.0
1971-05-02,26132.0
1971-05-03,26132.0
1971-05-04,26064.0
1971-05-05,25997.0
1971-05-06,25997.0
1971-05-07,25963.0
1971-05-08,26064.0
1971-05-09,26064.0
1971-05-10,26064.0
1971-05-11,26064.0
1971-05-12,26064.0
1971-05-13,26064.0
1971-05-14,26200.0
1971-05-15,26336.0
1971-05-16,26678.0
1971-05-17,26747.0
1971-05-18,26747.0
1971-05-19,26816.0
1971-05-20,26816.0
1971-05-21,26816.0
1971-05-22,26816.0
1971-05-23,26816.0
1971-05-24,26816.0
1971-05-25,26850.0
1971-05-26,26885.0
1971-05-27,27161.0
1971-05-28,28001.0
1971-05-29,29503.0
1971-05-30,31266.0
1971-05-31,32621.0
1971-06-01,33850.0
1971-06-02,35022.0
1971-06-03,36054.0
1971-06-04,37101.0
1971-06-05,38248.0
1971-06-06,39330.0
1971-06-07,40428.0
1971-06-08,41631.0
1971-06-09,43120.0
1971-06-10,45093.0
1971-06-11,47490.0
1971-06-12,49191.0
1971-06-13,50924.0
1971-06-14,53089.0
1971-06-15,54998.0
1971-06-16,56225.0
1971-06-17,57676.0
1971-06-18,59042.0
1971-06-19,60534.0
1971-06-20,61828.0
1971-06-21,63028.0
1971-06-22,63468.0
1971-06-23,64130.0
1971-06-24,64241.0
1971-06-25,64019.0
1971-06-26,63688.0
1971-06-27,62372.0
1971-06-28,63138.0
1971-06-29,62918.0
1971-06-30,62809.0
1971-07-01,62372.0
1971-07-02,62046.0
1971-07-03,62046.0
1971-07-04,62046.0
1971-07-05,61828.0
1971-07-06,61612.0
1971-07-07,61287.0
1971-07-08,60964.0
1971-07-09,60587.0
1971-07-10,60212.0
1971-07-11,59892.0
1971-07-12,59466.0
1971-07-13,59042.0
1971-07-14,58619.0
1971-07-15,58199.0
1971-07-16,57937.0
1971-07-17,57363.0
1971-07-18,57051.0
1971-07-19,56740.0
1971-07-20,56328.0
1971-07-21,55916.0
1971-07-22,55610.0
1971-07-23,55304.0
1971-07-24,54948.0
1971-07-25,54593.0
1971-07-26,54290.0
1971-07-27,53988.0
1971-07-28,53688.0
1971-07-29,53388.0
1971-07-30,53089.0
1971-07-31,52791.0
1971-08-01,52395.0
1971-08-02,52000.0
1971-08-03,51706.0
1971-08-04,51412.0
1971-08-05,51119.0
1971-08-06,50886.0
1971-08-07,50779.0
1971-08-08,50779.0
1971-08-09,50682.0
1971-08-10,50585.0
1971-08-11,50440.0
1971-08-12,50343.0
1971-08-13,50150.0
1971-08-14,50054.0
1971-08-15,49957.0
1971-08-16,49861.0
1971-08-17,49669.0
1971-08-18,49477.0
1971-08-19,49286.0
1971-08-20,49143.0
1971-08-21,48953.0
1971-08-22,48762.0
1971-08-23,48573.0
1971-08-24,48383.0
1971-08-25,48242.0
1971-08-26,48053.0
1971-08-27,47865.0
1971-08-28,47771.0
1971-08-29,47677.0
1971-08-30,47631.0
1971-08-31,47537.0
1971-09-01,47397.0
1971-09-02,47303.0
1971-09-03,47210.0
1971-09-04,47117.0
1971-09-05,47117.0
1971-09-06,47024.0
1971-09-07,47303.0
1971-09-08,47397.0
1971-09-09,47350.0
1971-09-10,47303.0
1971-09-11,47257.0
1971-09-12,47210.0
1971-09-13,47117.0
1971-09-14,47070.0
1971-09-15,46931.0
1971-09-16,46838.0
1971-09-17,46652.0
1971-09-18,46560.0
1971-09-19,46560.0
1971-09-20,46467.0
1971-09-21,46375.0
1971-09-22,46283.0
1971-09-23,46237.0
1971-09-24,46190.0
1971-09-25,46052.0
1971-09-26,45915.0
1971-09-27,45823.0
1971-09-28,45686.0
1971-09-29,45594.0
1971-09-30,45503.0
1971-10-01,45457.0
1971-10-02,45412.0
1971-10-03,45412.0
1971-10-04,45366.0
1971-10-05,45366.0
1971-10-06,45321.0
1971-10-07,45275.0
1971-10-08,45184.0
1971-10-09,45047.0
1971-10-10,45002.0
1971-10-11,45002.0
1971-10-12,44957.0
1971-10-13,44866.0
1971-10-14,44776.0
1971-10-15,44640.0
1971-10-16,44550.0
1971-10-17,44460.0
1971-10-18,44280.0
1971-10-19,44190.0
1971-10-20,44010.0
1971-10-21,43921.0
1971-10-22,43832.0
1971-10-23,43653.0
1971-10-24,43608.0
1971-10-25,43564.0
1971-10-26,43519.0
1971-10-27,43475.0
1971-10-28,43386.0
1971-10-29,43297.0
1971-10-30,43208.0
1971-10-31,43120.0
1971-11-01,43120.0
1971-11-02,42899.0
1971-11-03,42811.0
1971-11-04,42723.0
1971-11-05,42635.0
1971-11-06,42503.0
1971-11-07,42328.0
1971-11-08,42196.0
1971-11-09,42153.0
1971-11-10,42066.0
1971-11-11,41978.0
1971-11-12,41978.0
1971-11-13,41978.0
1971-11-14,41891.0
1971-11-15,41804.0
1971-11-16,41717.0
1971-11-17,41587.0
1971-11-18,41415.0
1971-11-19,41285.0
1971-11-20,41113.0
1971-11-21,41027.0
1971-11-22,40941.0
1971-11-23,40812.0
1971-11-24,40727.0
1971-11-25,40598.0
1971-11-26,40513.0
1971-11-27,40513.0
1971-11-28,40428.0
1971-11-29,40343.0
1971-11-30,40215.0
1971-12-01,40003.0
1971-12-02,39876.0
1971-12-03,39792.0
1971-12-04,39666.0
1971-12-05,39581.0
1971-12-06,39581.0
1971-12-07,39455.0
1971-12-08,39330.0
1971-12-09,39162.0
1971-12-10,38995.0
1971-12-11,38912.0
1971-12-12,38745.0
1971-12-13,38579.0
1971-12-14,38413.0
1971-12-15,38248.0
1971-12-16,38124.0
1971-12-17,37960.0
1971-12-18,37795.0
1971-12-19,37673.0
1971-12-20,37509.0
1971-12-21,37386.0
1971-12-22,37264.0
1971-12-23,37142.0
1971-12-24,37224.0
1971-12-25,37509.0
1971-12-26,37673.0
1971-12-27,37837.0
1971-12-28,37755.0
1971-12-29,37591.0
1971-12-30,37509.0
1971-12-31,37264.0
1972-01-01,37101.0
1972-01-02,36939.0
1972-01-03,36696.0
1972-01-04,36455.0
1972-01-05,36294.0
1972-01-06,36054.0
1972-01-07,35934.0
1972-01-08,35774.0
1972-01-09,35575.0
1972-01-10,35417.0
1972-01-11,35180.0
1972-01-12,35061.0
1972-01-13,34864.0
1972-01-14,34629.0
1972-01-15,34394.0
1972-01-16,34160.0
1972-01-17,34005.0
1972-01-18,33889.0
1972-01-19,33734.0
1972-01-20,33540.0
1972-01-21,33387.0
1972-01-22,33233.0
1972-01-23,33003.0
1972-01-24,32812.0
1972-01-25,32621.0
1972-01-26,32393.0
1972-01-27,32129.0
1972-01-28,31941.0
1972-01-29,31715.0
1972-01-30,31453.0
1972-01-31,31192.0
1972-02-01,30969.0
1972-02-02,30747.0
1972-02-03,30452.0
1972-02-04,30232.0
1972-02-05,30049.0
1972-02-06,29866.0
1972-02-07,29685.0
1972-02-08,29467.0
1972-02-09,29250.0
1972-02-10,28998.0
1972-02-11,28783.0
1972-02-12,28569.0
1972-02-13,28355.0
1972-02-14,28143.0
1972-02-15,27966.0
1972-02-16,27790.0
1972-02-17,27580.0
1972-02-18,27370.0
1972-02-19,27196.0
1972-02-20,27092.0
1972-02-21,26919.0
1972-02-22,26816.0
1972-02-23,26678.0
1972-02-24,26541.0
1972-02-25,26404.0
1972-02-26,26268.0
1972-02-27,26132.0
1972-02-28,26132.0
1972-02-29,26064.0
1972-03-01,26132.0
1972-03-02,26234.0
1972-03-03,27023.0
1972-03-04,27126.0
1972-03-05,27440.0
1972-03-06,27614.0
1972-03-07,27790.0
1972-03-08,27860.0
1972-03-09,27931.0
1972-03-10,28072.0
1972-03-11,28213.0
1972-03-12,28249.0
1972-03-13,28284.0
1972-03-14,28284.0
1972-03-15,28213.0